Flag for Switzerland Weather past 2 weeks in Lugano, Switzerland

Now
61 °F

Passing clouds.


Feels Like: 61 °F
Forecast: 44 / 59 °F
Wind: 1 mph from North

Location: Lugano Airport

Current Time: Oct 21, 2014 at 8:32:25 PM

Latest Report: Oct 21, 2014 at 7:50 PM


Visibility: N/A

Pressure: 29.74 "Hg

Humidity: 94%

Dew point: 59 °F

Location of LuganoLocation

Historic Weather in Lugano — Graph

°F

Lugano temperature yesterday

Maximum temperature yesterday: 70 °F (at 2:50 PM)
Minimum temperature yesterday: 54 °F (at 2:50 AM)
Average temperature yesterday: 61 °F

Past Weeks' High & Low Weather Summary

 TemperatureHumidityPressure
High75 °F (Oct 17, 3:20 PM)100% (Oct 7, 12:20 AM)30.33 "Hg (Oct 7, 12:20 AM)
Low50 °F (Oct 18, 6:50 AM)53% (Oct 17, 2:20 PM)29.77 "Hg (Oct 21, 5:50 PM)
Average61 °F91%30.03 "Hg
* Reported Oct 6 7:20 PM — Oct 21 7:20 PM, Lugano, Weather by CustomWeather, © 2014

Note: Actual official high and low records may vary slightly from our data, if they occured in-between our weather recording intervals... More about our weather records

Advertising

Lugano weather history for previous 24 hours

 ConditionsComfort  
Time TempWeatherWind HumidityBarometerVisibility
7:20 PM
Oct 21
63 °FScattered clouds.1 mph88%29.77 "HgN/A
6:50 PM64 °FPassing clouds.2 mph83%29.77 "HgN/A
6:20 PM66 °FPassing clouds.2 mph78%29.77 "HgN/A
5:50 PM68 °FPassing clouds.6 mph73%29.77 "HgN/A
5:20 PM70 °FPassing clouds.6 mph69%29.80 "HgN/A
4:50 PM70 °FPassing clouds.8 mph64%29.80 "HgN/A
4:20 PM72 °FPassing clouds.6 mph61%29.80 "Hg6 mi
3:50 PM72 °FPassing clouds.3 mph65%29.83 "Hg6 mi
3:20 PM72 °FPassing clouds.3 mph61%29.83 "Hg6 mi
2:50 PM70 °FPassing clouds.5 mph60%29.83 "Hg6 mi
2:20 PM70 °FPassing clouds.5 mph69%29.86 "Hg6 mi
1:50 PM68 °FPassing clouds.3 mph69%29.86 "Hg6 mi
1:20 PM68 °FPassing clouds.5 mph73%29.89 "Hg6 mi
12:50 PM66 °FPartly sunny.2 mph73%29.92 "Hg6 mi
12:20 PM64 °FPartly sunny.3 mph83%29.92 "Hg6 mi
11:50 AM66 °FPartly sunny.1 mph73%29.95 "Hg6 mi
11:20 AM64 °FPartly sunny.3 mph83%29.95 "Hg6 mi
10:50 AM64 °FPartly sunny.2 mph83%29.95 "Hg5 mi
10:20 AM63 °FPassing clouds.1 mph88%29.95 "Hg5 mi
9:50 AM59 °FPassing clouds.1 mph94%29.95 "Hg5 mi
9:20 AM59 °FScattered clouds.1 mph94%29.95 "Hg5 mi
8:50 AM59 °FPartly sunny.1 mph94%29.95 "Hg5 mi
8:20 AM57 °FFog.6 mph100%29.95 "Hg3 mi
7:50 AM55 °FFog.1 mph100%29.95 "Hg3 mi
7:20 AM57 °FFog.1 mph100%29.95 "Hg3 mi
6:50 AM57 °FFog.2 mph94%29.95 "Hg3 mi
6:20 AM57 °FFog.2 mph100%29.95 "Hg3 mi
5:50 AM55 °FFog.2 mph100%29.95 "Hg2 mi
5:20 AM57 °FPartly cloudy.1 mph100%29.95 "Hg3 mi
4:50 AM57 °FFog.2 mph100%29.95 "Hg3 mi
4:20 AM59 °FFog.3 mph94%29.98 "Hg3 mi
3:50 AM59 °FCool.3 mph100%29.98 "Hg4 mi
3:20 AM61 °FCool.3 mph94%29.98 "Hg4 mi
2:50 AM61 °FPassing clouds.2 mph94%30.01 "Hg3 mi
2:20 AM61 °FMostly cloudy.2 mph94%30.04 "Hg3 mi
1:50 AM61 °FPartly cloudy.2 mph94%30.04 "Hg3 mi
1:20 AM61 °FPartly cloudy.No wind94%30.04 "Hg4 mi
12:50 AM61 °FOvercast.1 mph94%30.04 "Hg4 mi
12:20 AM61 °FOvercast.2 mph94%30.04 "Hg4 mi
11:50 PM
Oct 20
61 °FOvercast.1 mph94%30.07 "Hg4 mi
11:20 PM61 °FOvercast.1 mph94%30.07 "Hg6 mi
10:50 PM61 °FPassing clouds.1 mph94%30.07 "Hg4 mi
10:20 PM61 °FPassing clouds.1 mph94%30.07 "Hg5 mi
9:50 PM63 °FPassing clouds.1 mph88%30.09 "Hg5 mi
9:20 PM63 °FPassing clouds.3 mph88%30.09 "Hg4 mi
8:50 PM63 °FPassing clouds.2 mph88%30.09 "Hg4 mi
8:20 PM64 °FPassing clouds.1 mph88%30.09 "Hg4 mi
Weather by CustomWeather, © 2014

See weather overviewHow to use our weather pages